Weather History for Dalhart, TX

Change the Weather History Date:

Saturday, January 19, 2013

  Actual Average Record
Temperature  
Mean Temperature 44 °F 35 °F  
Max Temperature 63 °F 50 °F 78 °F (1986)
Min Temperature 25 °F 19 °F -14 °F (1984)
Degree Days  
Heating Degree Days 21 30  
Month to date heating degree days 638 581  
Since 1 July heating degree days 2306 2524  
Cooling Degree Days 0 0  
Month to date cooling degree days 0 0  
Year to date cooling degree days 0 0  
Moisture  
Dew Point 14 °F    
Average Humidity 46    
Maximum Humidity 81    
Minimum Humidity 11    
Precipitation  
Precipitation 0.00 in 0.01 in 0.33 in (1993)
Month to date precipitation 0.17 0.28  
Year to date precipitation 0.17 0.28  
Snow  
Snow 0.00 in 0.20 in 3.60 in (1993)
Month to date snowfall T 2.4  
Since 1 July snowfall 4.0 8.6  
Snow Depth 0.00 in    
Sea Level Pressure  
Sea Level Pressure 30.17 in    
Wind  
Wind Speed 10 mph (NNW)    
Max Wind Speed 31 mph    
Max Gust Speed 37 mph    
Visibility 10 miles    
Events      
T = Trace of Precipitation, MM = Missing Value Source: NWS Daily Summary

Daily Weather History Graph

Daily Weather History Graph

Search for Another Location

Airport:

Trip Planner

Search our weather history database for the weather conditions in past years. The results will help you decide how hot, cold, wet, or windy it might be!

Date:

Astronomy

Jan. 19, 2013 Rise Set
Actual Time 7:58 AM CST 6:03 PM CST
Civil Twilight 7:30 AM CST 6:31 PM CST
Nautical Twilight 6:59 AM CST 7:02 PM CST
Astronomical Twilight 6:28 AM CST 7:33 PM CST
Moon 12:29 PM CST (1/19) 1:37 AM CST (1/19)
Length of Visible Light 11h 00m
Length of Day
10h 05m
First Quarter, 57% of the Moon is Illuminated
Jan 19
First Quarter
Jan 26
Full
Feb 3
Last Quarter
Feb 10
New
Feb 17
First Quarter

Hourly Weather History & Observations

Time (CST) Temp. Windchill Dew Point Humidity Pressure Visibility Wind Dir Wind Speed Gust Speed Precip Events Conditions
12:53 AM 26.1 °F 20.5 °F 19.9 °F 78% 30.08 in 10.0 mi West 4.6 mph - N/A   Clear
1:53 AM 27.0 °F 21.6 °F 21.0 °F 78% 30.06 in 10.0 mi WNW 4.6 mph - N/A   Clear
2:53 AM 30.9 °F 22.8 °F 21.0 °F 67% 30.05 in 10.0 mi WNW 9.2 mph - N/A   Clear
3:53 AM 28.0 °F 19.3 °F 19.9 °F 72% 30.05 in 10.0 mi WNW 9.2 mph - N/A   Clear
4:53 AM 28.9 °F 20.4 °F 19.0 °F 67% 30.05 in 10.0 mi NW 9.2 mph - N/A   Clear
5:53 AM 30.9 °F 22.8 °F 18.0 °F 59% 30.08 in 10.0 mi NW 9.2 mph - N/A   Clear
6:53 AM 32.0 °F 24.8 °F 16.0 °F 52% 30.11 in 10.0 mi NW 8.1 mph - N/A   Clear
7:53 AM 35.1 °F 27.4 °F 12.9 °F 40% 30.12 in 10.0 mi NW 10.4 mph - N/A   Clear
8:53 AM 33.1 °F 26.1 °F 17.1 °F 52% 30.16 in 10.0 mi NW 8.1 mph - N/A   Clear
9:53 AM 45.0 °F 40.1 °F 18.0 °F 34% 30.18 in 10.0 mi North 9.2 mph - N/A   Clear
10:53 AM 55.0 °F - 8.1 °F 15% 30.19 in 10.0 mi NNE 23.0 mph - N/A   Clear
11:53 AM 59.0 °F - 6.1 °F 12% 30.20 in 10.0 mi NNE 28.8 mph 36.8 mph N/A   Clear
12:53 PM 60.1 °F - 7.0 °F 12% 30.19 in 10.0 mi NNE 20.7 mph 31.1 mph N/A   Clear
1:53 PM 61.0 °F - 7.0 °F 12% 30.17 in 10.0 mi NNE 18.4 mph 27.6 mph N/A   Clear
2:53 PM 63.0 °F - 6.1 °F 11% 30.15 in 10.0 mi NNE 16.1 mph - N/A   Clear
3:53 PM 62.1 °F - 8.1 °F 12% 30.18 in 10.0 mi North 16.1 mph - N/A   Clear
4:53 PM 60.1 °F - 8.1 °F 13% 30.19 in 10.0 mi NNE 11.5 mph - N/A   Clear
5:53 PM 52.0 °F - 10.9 °F 19% 30.23 in 10.0 mi NE 8.1 mph - N/A   Clear
6:53 PM 43.0 °F 38.8 °F 12.0 °F 28% 30.26 in 10.0 mi ENE 6.9 mph - N/A   Clear
7:53 PM 41.0 °F 35.8 °F 14.0 °F 33% 30.27 in 10.0 mi NE 8.1 mph - N/A   Clear
8:53 PM 37.9 °F 35.5 °F 15.1 °F 39% 30.30 in 10.0 mi SSE 3.5 mph - N/A   Clear
9:53 PM 37.0 °F - 15.1 °F 41% 30.28 in 10.0 mi Calm Calm - N/A   Clear
10:53 PM 34.0 °F - 16.0 °F 48% 30.26 in 10.0 mi Calm Calm - N/A   Clear
11:53 PM 30.9 °F 27.5 °F 18.0 °F 59% 30.26 in 10.0 mi WSW 3.5 mph - N/A   Clear